• MPC Preparation (Info)

  • MPEC 2016-O95 : 2014 OE394

    The following Minor Planet Electronic Circular may be linked-to from your own Web pages, but must not otherwise be redistributed electronically.

    A form allowing access to any MPEC is at the bottom of this page.


    Read MPEC 2016-O94 Read MPEC 2016-O96


    M.P.E.C. 2016-O95                                Issued 2016 July 17, 02:23 UT
    
         The Minor Planet Electronic Circulars contain information on unusual
             minor planets and routine data on comets.  They are published
        on behalf of Division F of the International Astronomical Union by the
              Minor Planet Center, Smithsonian Astrophysical Observatory,
                              Cambridge, MA 02138, U.S.A.
    
                 Prepared using the Tamkin Foundation Computer Network
    
                                  MPC@CFA.HARVARD.EDU
                URL https://www.minorplanetcenter.net/    ISSN 1523-6714
    
                                      2014 OE394
    
    Observations:
         K14Od4E  C2011 08 04.35579 19 08 01.724-24 05 18.44         21.4 rLEO095F51
         K14Od4E  C2011 08 04.36513 19 08 01.688-24 05 18.16         21.4 rLEO095F51
         K14Od4E  C2011 08 04.37620 19 08 01.636-24 05 17.90         21.6 gLEO095F51
         K14Od4E  C2011 08 04.38600 19 08 01.563-24 05 18.27         21.5 gLEO095F51
         K14Od4E  C2012 06 14.45384 19 17 20.445-23 45 14.72         21.1 wLEO095F51
         K14Od4E  C2012 06 14.46532 19 17 20.390-23 45 14.79         21.1 wLEO095F51
         K14Od4E  C2012 06 14.47681 19 17 20.340-23 45 14.93         21.0 wLEO095F51
         K14Od4E  C2012 06 14.48832 19 17 20.288-23 45 15.02         21.0 wLEO095F51
         K14Od4E  C2013 06 18.50340 19 22 21.817-23 30 56.94         21.2 wLEO095F51
         K14Od4E  C2013 06 18.51649 19 22 21.754-23 30 57.14         21.2 wLEO095F51
         K14Od4E  C2013 06 18.52961 19 22 21.702-23 30 57.15         21.2 wLEO095F51
         K14Od4E  C2013 06 18.54273 19 22 21.636-23 30 57.29         21.2 wLEO095F51
         K14Od4E* C2014 07 28.36320 19 24 29.940-23 21 26.47         21.0 wLEO095F51
         K14Od4E  C2014 07 28.37385 19 24 29.879-23 21 26.55         21.2 wLEO095F51
         K14Od4E  C2014 07 28.38455 19 24 29.832-23 21 26.64         21.2 wLEO095F51
         K14Od4E  C2014 07 28.39523 19 24 29.790-23 21 26.74         21.2 wLEO095F51
         K14Od4E  C2014 09 19.23471 19 21 38.490-23 25 18.16         21.4 wLEO095F51
         K14Od4E  C2014 09 19.24616 19 21 38.473-23 25 18.14         21.5 wLEO095F51
         K14Od4E  C2014 09 19.25763 19 21 38.452-23 25 18.42         21.7 wLEO095F51
         K14Od4E  C2014 09 19.26907 19 21 38.428-23 25 18.29         21.7 wLEO095F51
         K14Od4E  C2014 09 23.24948 19 21 34.102-23 25 16.40         21.7 wLEO095F51
         K14Od4E  C2014 09 23.26103 19 21 34.090-23 25 16.49         21.6 wLEO095F51
         K14Od4E  C2014 09 23.27255 19 21 34.084-23 25 16.45         21.8 wLEO095F51
         K14Od4E  C2015 05 19.52557 19 34 35.251-22 55 32.53         21.2 wLEO095F51
         K14Od4E  C2015 05 19.53695 19 34 35.223-22 55 32.55         21.4 wLEO095F51
         K14Od4E  C2015 05 19.54829 19 34 35.197-22 55 32.70         21.1 wLEO095F51
         K14Od4E  C2015 05 19.55963 19 34 35.160-22 55 32.79         21.2 wLEO095F51
         K14Od4E  C2015 05 21.53752 19 34 30.197-22 55 45.13         21.2 wLEO095F51
         K14Od4E  C2015 05 21.54928 19 34 30.168-22 55 45.21         21.4 wLEO095F51
         K14Od4E  C2015 05 21.56103 19 34 30.136-22 55 45.19         21.2 wLEO095F51
         K14Od4E  C2015 05 21.57280 19 34 30.102-22 55 45.31         21.4 wLEO095F51
         K14Od4E  C2015 07 07.42486 19 31 25.112-23 02 32.65         20.7 iLEO095F51
         K14Od4E  C2015 07 07.43498 19 31 25.066-23 02 32.80         20.6 iLEO095F51
         K14Od4E  C2015 07 07.44689 19 31 25.002-23 02 33.00         21.2 iLEO095F51
         K14Od4E  C2015 07 07.45698 19 31 24.946-23 02 32.99         20.9 iLEO095F51
         K14Od4E  C2015 07 26.40519 19 29 54.144-23 05 30.58         21.0 iLEO095F51
         K14Od4E  C2015 07 26.41528 19 29 54.095-23 05 30.60         20.6 iLEO095F51
         K14Od4E  C2015 07 26.42719 19 29 54.047-23 05 30.78         20.8 iLEO095F51
         K14Od4E  C2015 07 26.43818 19 29 53.996-23 05 30.74         20.6 iLEO095F51
    
    Observer details:
    F51 Pan-STARRS 1, Haleakala.  Observers B. Gibson, T. Goggia, N. Primak,
        A. Schultz, M. Willman.  Measurers K. Chambers, S. Chastel, Y.-T. Chen,
        L. Denneau, H. Flewelling, M. Holman, M. Huber, R. Jedicke, M. Lackner,
        E. Lilly, H.-W. Lin, E. Magnier, M. Micheli, M. Payne, P. Veres,
        R. Wainscoat, C. Waters, R. Weryk.  1.8-m Ritchey-Chretien + CCD.
    
    Orbital elements:
    2014 OE394
    Epoch 2016 July 31.0 TT = JDT 2457600.5                 MPC
    M  70.25472              (2000.0)            P               Q
    n   0.00311931     Peri.  259.35897     -0.87918203     +0.47348635
    a  46.3906335      Node   308.87986     -0.40596456     -0.80299891
    e   0.1204038      Incl.    3.93206     -0.24946290     -0.36194395
    P 316              H    4.6           G   0.15           U   2
    Residuals in seconds of arc
    110804 F51  0.1+  0.2-    140728 F51  0.1-  0.1-    150519 F51  0.0   0.0
    110804 F51  0.1+  0.2+    140728 F51  0.1-  0.1-    150521 F51  0.1+  0.1-
    110804 F51  0.1+  0.5+    140728 F51  0.0   0.1-    150521 F51  0.1+  0.1-
    110804 F51  0.3-  0.2+    140919 F51  0.1+  0.0     150521 F51  0.1+  0.0
    120614 F51  0.0   0.2-    140919 F51  0.1+  0.0     150521 F51  0.0   0.0
    120614 F51  0.0   0.2-    140919 F51  0.0   0.2-    150707 F51  0.0   0.2+
    120614 F51  0.0   0.2-    140919 F51  0.1-  0.1-    150707 F51  0.0   0.1+
    120614 F51  0.0   0.2-    140923 F51  0.2+  0.3+    150707 F51  0.1-  0.0
    130618 F51  0.0   0.0     140923 F51  0.2+  0.2+    150707 F51  0.1-  0.1+
    130618 F51  0.0   0.1-    140923 F51  0.2+  0.2+    150726 F51  0.2-  0.1-
    130618 F51  0.1+  0.0     150519 F51  0.1+  0.0     150726 F51  0.2-  0.0
    130618 F51  0.0   0.1-    150519 F51  0.1+  0.1+    150726 F51  0.1-  0.1-
    140728 F51  0.0   0.1-    150519 F51  0.1+  0.0     150726 F51  0.1-  0.0
    
    Ephemeris:
    2014 OE394               a,e,i = 46.39, 0.12, 4                  q = 40.805
    Date    TT    R. A. (2000) Decl.     Delta      r     Elong.  Phase     V
    2016 06 17    19 38 04.9 -22 42 51  44.2071 45.1184   153.5     0.6    21.2
    ...
    2016 07 02    19 36 58.2 -22 45 21  44.1279 45.1229   168.0     0.3    21.2
    ...
    2016 07 10    19 36 20.3 -22 46 43  44.1115 45.1254   175.7     0.1    21.1
    ...
    2016 07 16    19 35 51.6 -22 47 44  44.1114 45.1272   178.0     0.0    21.1
    2016 07 17    19 35 46.8 -22 47 54  44.1125 45.1275   177.1     0.1    21.1
    2016 07 18    19 35 42.0 -22 48 04  44.1137 45.1278   176.2     0.1    21.1
    ...
    2016 07 24    19 35 13.4 -22 49 02  44.1275 45.1296   170.5     0.2    21.2
    ...
    2016 08 01    19 34 36.3 -22 50 16  44.1619 45.1321   162.7     0.4    21.2
    ...
    2016 08 16    19 33 32.3 -22 52 16  44.2738 45.1366   148.1     0.7    21.2
    
    A. U. Tomatic                (C) Copyright 2016 MPC           M.P.E.C. 2016-O95
    

    Read MPEC 2016-O94 Read MPEC 2016-O96


    MPEC number:

    Enter an MPEC number in one of the following forms:

    • 1997-B01 (the full form)
    • J97B01 (the packed version of the full form)
    • B01 (the abbreviated form)